This is the latest recevied weather packets stored in our database for station/object WB6ANP. If no packets are shown the sender has not sent any weather packets the latest 10 day(s).
| Time | Temp. | Humidity | Pressure | Rain* | Wind** | Luminosity | Snow |
|---|---|---|---|---|---|---|---|
| 1777819016 | 19.44° C | 56% | 1021.3 hPa | 0 mm | - | 517 W/m² | - |
| 1777818714 | 19.44° C | 55% | 1021.5 hPa | 0 mm | - | 499 W/m² | - |
| 1777818410 | 18.89° C | 54% | 1021.4 hPa | 0 mm | - | 480 W/m² | - |
| 1777818108 | 18.89° C | 54% | 1021.3 hPa | 0 mm | - | 460 W/m² | - |
| 1777817804 | 18.89° C | 55% | 1021.4 hPa | 0 mm | - | 440 W/m² | - |
| 1777817502 | 18.89° C | 54% | 1021.3 hPa | 0 mm | - | 424 W/m² | - |
| 1777817197 | 18.89° C | 55% | 1021.4 hPa | 0 mm | - | 406 W/m² | - |
| 1777816896 | 18.89° C | 59% | 1021.4 hPa | 0 mm | - | 386 W/m² | - |
| 1777816592 | 18.33° C | 58% | 1021.4 hPa | 0 mm | - | 366 W/m² | - |
| 1777816289 | 17.78° C | 59% | 1021.2 hPa | 0 mm | - | 346 W/m² | - |
| 1777815986 | 17.78° C | 59% | 1021.3 hPa | 0 mm | - | 327 W/m² | - |
| 1777815684 | 17.78° C | 60% | 1021.2 hPa | 0 mm | - | 310 W/m² | - |
| 1777815381 | 17.22° C | 62% | 1021.1 hPa | 0 mm | - | 292 W/m² | - |
| 1777815078 | 17.22° C | 64% | 1021 hPa | 0 mm | - | 274 W/m² | - |
| 1777814774 | 16.67° C | 64% | 1021 hPa | 0 mm | - | 257 W/m² | - |
| 1777814471 | 16.67° C | 65% | 1021.3 hPa | 0 mm | - | 232 W/m² | - |
| 1777814168 | 16.11° C | 65% | 1021.1 hPa | 0 mm | - | 212 W/m² | - |
| 1777813865 | 16.11° C | 67% | 1021.1 hPa | 0 mm | - | 191 W/m² | - |
| 1777813563 | 15.56° C | 67% | 1021 hPa | 0 mm | - | 176 W/m² | - |
| 1777813260 | 15.56° C | 68% | 1021 hPa | 0 mm | - | 162 W/m² | - |
| 1777812957 | 15° C | 69% | 1021.1 hPa | 0 mm | - | 152 W/m² | - |
| 1777812654 | 15° C | 69% | 1020.8 hPa | 0 mm | - | 136 W/m² | - |
| 1777812351 | 14.44° C | 71% | 1020.9 hPa | 0 mm | - | 121 W/m² | - |
| 1777812050 | 13.89° C | 71% | 1020.9 hPa | 0 mm | - | 106 W/m² | - |
| 1777811748 | 13.89° C | 71% | 1020.9 hPa | 0 mm | - | 90 W/m² | - |
* Rain latest hour (hover to see other rain measurements)
** Current wind speed in m/s (hover to see current wind gust speed)